STARLINK-34048, 63816

Orbit data source: Space-Track

STARLINK-34048, 63816 is a payload satellite owned by SpaceX/Seattle (US) in LEO that was launched on Sun, 04 May 2025 UTC via an FALCON 9 launch vehicle from the Air Force Eastern Test Range (AFETR). Payload-class satellites include a variety of spacecraft equipped with specific instruments for various scientific and technological missions. These include communications satellites like Starlink; space stations such as the ISS; scientific satellites like the Hubble; Earth observation satellites from companies like Planet Labs, Umbra, and HawkEye 360; GPS; miniature CubeSats for education and research; and military/defense satellites.

Loading next visibility...
Identifier
63816, 2025-092N
Orbit
LEO
Last TLE update
9 hours ago
Origin
Manufacturer
SpaceX/Seattle
Mission
Operational spacecraft
Bus & Motor
STARLINK V2MO, Unknown motor
Mass
575 kg wet, ~530 kg dry
Launch date (UTC)
2025-05-04 (1 week ago)
Launch vehicle
FALCON 9
Launch site
Air Force Eastern Test Range (AFETR)
Object type
Payload
Rocket body
Debris
Shape & HBR
Unknown
Radar Cross Section
Medium (>0.1 m² and <1 m²)

Expand to show TLE details & history

TLE from 9 hours ago
0 STARLINK-34048
1 63816U 25092N   25133.16668981 -.00944119  00000-0 -35595-2 0  9990
2 63816  43.0006  78.5910 0001163 277.8249  34.2384 15.88932721  2595
Epoch: 2025-05-13T04:00Z
Definitive object data (Epoch: 2025-05-13T04:00:01.999Z)
Latitude
-30.59526°
Longitude
108.32755°
Altitude
312.852 km
Speed
7.721 km/s
True Right ascension
02h 38m 01s
True Declination
-30° 26' 05"
Sunlit
Object was in daylight at TLE epoch
Visualization TLE readout
Latitude
-12.63532°
Longitude
131.21678°
Altitude
309.264 km
Speed
7.724 km/s
Apparent Right ascension
06h 24m 52s
Apparent Declination
-32° 23' 34"
Sunlit
Object is in daylight
Visualization observer readout
Local Sidereal Time
21:36:21
Azimuth
94.332° ESE
Elevation
-51.095°
Doppler factor
1
Orbital elements
Apogee altitude
308.048 km
Perigee altitude
306.493 km
Semi-major axis
6,685.408 km
Eccentricity
0.0001163
Inclination
43.0006°
RAAN
78.591°
Arg. of periapsis
277.8249°
True anomaly
34.2459°
Mean anomaly
34.2384°
Eccentric anomaly
34.24215°
Mean motion
3.97056 °/min
BSTAR
-0.0035595
Orbital period
90.67 mins
Loading maneuver chart data...
Loading SW <> Apogee altitude chart data...
Loading historical data...
Loading historical data...
Loading historical data...
Loading historical data...
Loading historical data...
Loading historical data...
Loading historical data...

STARLINK-34048 Visibility forecast

Observer location: undefined°, undefined°

Span
Click to sort rows by Start time (UTC) header in descending order
Start Az.
Max El. time (UTC)
Max El. Az.
Max El.
End time (UTC)
End Az.
4 mins2025-05-14 00:03:39.250Z226.83° WSW2025-05-14 00:05:39.250Z138.591° SSE36.115°2025-05-14 00:07:39.250Z81.567° E
|